パンスターズ彗星

P/2014 A3 ( PanSTARRS )

English version
Home page
Updated on July 20, 2015

---------------------------------------------------------------------

・ プロフィール

発見日 2014年1月9日
発見光度 21.1等
発見者 Pan-STARRS 1 telescope (Haleakala)

・ 写真集

・ 軌道要素

Epoch 2013 Apr. 18.0 TT = JDT 2456400.5
T 2013 Apr. 21.94297 TT                                 MPCW
q   3.5491125            (2000.0)            P               Q
n   0.09695826     Peri.  213.58536     +0.11053408     -0.97679530
a   4.6925924      Node   230.77079     +0.95601458     +0.15495527
e   0.2436777      Incl.   13.69908     +0.27169531     -0.14785063
P  10.2
From 54 observations 2014 Jan. 9-2015 Feb. 23, mean residual 0".3.

・ 光度変化

        m1 = 12.0 + 5 logΔ + 10.0 log r

---------------------------------------------------------------------

軌道要素はM.P.E.C. 2015-E14に掲載されたものです。
光度グラフはComet for Windowsで作成したものです。

---------------------------------------------------------------------

Copyright(C) Seiichi Yoshida (comet@aerith.net). All rights reserved.